SCP
1 1 1 1 1 1 0 0 0 0 0 0 0 0 0 0 0 0 0 0 1 0
1 1 1 0 0 0 0 0 0 0 0 0 0 0 0 0 0 0 0 0 0 0
0 0 0 0 0 0 0 0 0 0 0 0 0 0 0 0 0 0 0 0 0 0
0 0 0 0 0 0 0 0 0 0 0 0 0 0 0 0 0 0 0 0 0 0
0 0 0 0 0 0 0 0 0 0 0 0 0 0 0 0 0 0 0 0 0 0
0 0 0 0 0 0 0 0 0 0 0 0 0 0 0 0 0 0 0 0 0 0
0 0 0 0 0 0 0 0 0 0 0 0 0 0 0 0 0 0 0 0 0 0
0 0 0 0 0 0 0 0 0 0 0 0 0 0 0 0 0 0 0 0 0 0
0 0 0 0 0 0 0 0 0 0 0 0 0 0 0 0 0 0 0 0 0 0
0 0 0 0 0 0 0 0 0 0 0 0 0 0 0 0 0 0 0 0 0 0
0 0 0 0 0 0 0 0 0 0 0 0 0 0 0 0 0 0 0 0 0 0
0 0 0 0 0 0 0 0 0 0 0 0 0 0 0 0 0 0 0 0 0 0
0 0 0 0 0 0 0 0 0 0 0 0 0 0 0 0 0 0 0 0 0 0
0 0 0 0 0 0 0 0 0 0 0 0 0 0 0 0 0 0 0 0 0 0
Wind_Speed_500mb
24 24 23 25 23 22 21 21 22 23 22 27 31 32 33 33 37 41 41 36 38 32
17 12 13 13 9 10 14 17 23 27 29 26 26 29 27 26 25 29 32 38 48 51
27 23 17 13 9 5 3 4 7 10 13 16 16 17 17 17 22 26 29 31 35 39
32 28 25 24 25 20 13 11 10 9 7 4 5 11 15 19 22 20 22 22 25 31
39 34 29 22 18 14 12 13 14 15 13 11 11 11 12 14 13 14 17 19 24 28
33 25 19 15 12 9 9 9 11 13 16 18 20 23 25 26 26 26 28 28 27 26
26 20 16 12 8 10 13 16 20 23 25 27 30 32 34 35 36 38 39 40 41 42
19 12 9 8 13 17 20 23 27 30 32 35 37 41 43 45 47 48 49 49 49 50
11 11 13 16 20 25 29 32 34 35 36 37 38 42 46 50 54 57 57 56 55 56
9 10 14 20 26 32 35 37 40 43 45 48 49 50 52 52 51 50 49 48 47 46
8 14 22 30 37 42 46 50 55 57 59 60 56 55 53 50 45 41 39 40 41 42
16 24 33 40 45 51 57 60 61 61 60 56 51 45 43 34 30 31 33 34 35 38
30 39 47 53 57 59 59 57 51 47 41 36 30 27 27 27 26 27 31 33 34 40
46 51 55 56 53 47 40 35 30 27 22 19 18 18 22 26 28 34 40 36 31 29
Wind_Direction_500mb
192 200 212 230 241 245 247 256 261 254 258 267 267 266 267 260 254 262 270 270 267 255
182 186 198 213 216 243 266 271 270 264 261 264 265 265 272 273 272 266 265 264 261 262
143 142 145 153 167 191 230 292 283 261 254 253 256 265 261 268 275 279 278 273 263 266
129 127 128 126 115 99 84 59 43 49 47 16 296 277 280 283 277 278 289 289 275 270
119 119 116 109 96 85 62 43 22 7 357 348 338 335 331 327 324 308 298 286 280 273
122 123 116 101 81 52 28 360 340 328 320 318 318 317 316 313 309 307 306 303 297 291
109 102 92 70 36 359 339 325 315 309 309 308 307 305 303 300 298 296 294 291 290 291
98 85 59 11 350 339 328 317 312 307 304 303 304 301 299 296 293 290 289 290 289 287
62 34 11 358 346 338 333 329 325 321 317 313 309 303 299 297 296 296 296 295 294 294
54 20 353 339 331 325 323 323 322 318 315 314 314 310 305 301 301 301 300 300 299 299
1 334 329 327 324 320 317 314 311 309 307 306 306 306 304 303 305 304 304 303 305 309
327 323 321 318 315 311 307 304 302 301 300 301 304 302 301 306 307 305 308 310 310 307
326 322 319 316 311 308 307 308 309 310 312 313 314 311 309 309 313 312 311 316 317 317
322 315 313 313 313 316 319 321 324 328 335 338 331 318 320 320 317 314 318 321 324 324
Wind_Speed_850mb
24 24 23 25 23 22 21 21 22 23 22 27 31 32 33 33 37 41 41 36 38 32
17 12 13 13 9 10 14 17 23 27 29 26 26 29 27 26 25 29 32 38 48 51
27 23 17 13 9 5 3 4 7 10 13 16 16 17 17 17 22 26 29 31 35 39
32 28 25 24 25 20 13 11 10 9 7 4 5 11 15 19 22 20 22 22 25 31
39 34 29 22 18 14 12 13 14 15 13 11 11 11 12 14 13 14 17 19 24 28
33 25 19 15 12 9 9 9 11 13 16 18 20 23 25 26 26 26 28 28 27 26
26 20 16 12 8 10 13 16 20 23 25 27 30 32 34 35 36 38 39 40 41 42
19 12 9 8 13 17 20 23 27 30 32 35 37 41 43 45 47 48 49 49 49 50
11 11 13 16 20 25 29 32 34 35 36 37 38 42 46 50 54 57 57 56 55 56
9 10 14 20 26 32 35 37 40 43 45 48 49 50 52 52 51 50 49 48 47 46
8 14 22 30 37 42 46 50 55 57 59 60 56 55 53 50 45 41 39 40 41 42
16 24 33 40 45 51 57 60 61 61 60 56 51 45 43 34 30 31 33 34 35 38
30 39 47 53 57 59 59 57 51 47 41 36 30 27 27 27 26 27 31 33 34 40
46 51 55 56 53 47 40 35 30 27 22 19 18 18 22 26 28 34 40 36 31 29
Wind_Direction_850mb
192 200 212 230 241 245 247 256 261 254 258 267 267 266 267 260 254 262 270 270 267 255
182 186 198 213 216 243 266 271 270 264 261 264 265 265 272 273 272 266 265 264 261 262
143 142 145 153 167 191 230 292 283 261 254 253 256 265 261 268 275 279 278 273 263 266
129 127 128 126 115 99 84 59 43 49 47 16 296 277 280 283 277 278 289 289 275 270
119 119 116 109 96 85 62 43 22 7 357 348 338 335 331 327 324 308 298 286 280 273
122 123 116 101 81 52 28 360 340 328 320 318 318 317 316 313 309 307 306 303 297 291
109 102 92 70 36 359 339 325 315 309 309 308 307 305 303 300 298 296 294 291 290 291
98 85 59 11 350 339 328 317 312 307 304 303 304 301 299 296 293 290 289 290 289 287
62 34 11 358 346 338 333 329 325 321 317 313 309 303 299 297 296 296 296 295 294 294
54 20 353 339 331 325 323 323 322 318 315 314 314 310 305 301 301 301 300 300 299 299
1 334 329 327 324 320 317 314 311 309 307 306 306 306 304 303 305 304 304 303 305 309
327 323 321 318 315 311 307 304 302 301 300 301 304 302 301 306 307 305 308 310 310 307
326 322 319 316 311 308 307 308 309 310 312 313 314 311 309 309 313 312 311 316 317 317
322 315 313 313 313 316 319 321 324 328 335 338 331 318 320 320 317 314 318 321 324 324